When you browse on this site, cookies collect data to enhance your experience and personalize the content and advertising you see.
Visit our Privacy Policy to learn more. By continuing to use the site, you agree to this use of cookies and data.
EN

Hourly Weather Verkeevschina

Today, 6 August, Thursday

Time Temperature Precipitation Wind Pressure Humidity
00:00 +19°C° 0.1 mm 2 mps 748 mmHg 97%
01:00 +18°C° 0.1 mm 2 mps 749 mmHg 97%
02:00 +18°C° 0.1 mm 2 mps 749 mmHg 97%
03:00 +19°C° 0.1 mm 1 mps 749 mmHg 97%
04:00 +19°C° 0.1 mm 1 mps 749 mmHg 97%
05:00 +19°C° 0.1 mm 1 mps 750 mmHg 97%
06:00 +19°C° 0 mm 2 mps 750 mmHg 95%
07:00 +20°C° 0 mm 2 mps 750 mmHg 92%
08:00 +21°C° 0 mm 2 mps 751 mmHg 89%
09:00 +22°C° 0 mm 3 mps 751 mmHg 84%
10:00 +24°C° 0 mm 3 mps 751 mmHg 80%
11:00 +25°C° 0 mm 3 mps 751 mmHg 75%
12:00 +25°C° 0 mm 4 mps 751 mmHg 73%
13:00 +25°C° 0 mm 4 mps 751 mmHg 70%
14:00 +26°C° 0 mm 4 mps 751 mmHg 68%
15:00 +25°C° 0 mm 4 mps 751 mmHg 69%
16:00 +25°C° 0 mm 4 mps 751 mmHg 70%
17:00 +24°C° 0 mm 3 mps 751 mmHg 71%
18:00 +22°C° 0 mm 3 mps 751 mmHg 75%
19:00 +20°C° 0 mm 3 mps 752 mmHg 78%
20:00 +18°C° 0 mm 3 mps 752 mmHg 82%
21:00 +18°C° 0 mm 3 mps 752 mmHg 82%
22:00 +17°C° 0 mm 3 mps 752 mmHg 81%
23:00 +16°C° 0 mm 2 mps 753 mmHg 81%

Tomorrow, 7 August, Friday

Time Temperature Precipitation Wind Pressure Humidity
00:00 +16°C° 0 mm 2 mps 753 mmHg 81%
01:00 +16°C° 0 mm 2 mps 753 mmHg 82%
02:00 +15°C° 0 mm 2 mps 753 mmHg 82%
03:00 +15°C° 0 mm 2 mps 753 mmHg 84%
04:00 +15°C° 0 mm 2 mps 753 mmHg 86%
05:00 +15°C° 0 mm 2 mps 753 mmHg 87%
06:00 +16°C° 0 mm 3 mps 753 mmHg 84%
07:00 +18°C° 0 mm 3 mps 754 mmHg 80%
08:00 +19°C° 0 mm 3 mps 754 mmHg 77%
09:00 +20°C° 0 mm 3 mps 754 mmHg 73%
10:00 +22°C° 0 mm 3 mps 754 mmHg 69%
11:00 +24°C° 0 mm 3 mps 754 mmHg 65%
12:00 +24°C° 0 mm 3 mps 754 mmHg 65%
13:00 +25°C° 0 mm 3 mps 754 mmHg 65%
14:00 +25°C° 0 mm 3 mps 753 mmHg 65%
15:00 +25°C° 0 mm 3 mps 753 mmHg 67%
16:00 +25°C° 0 mm 3 mps 753 mmHg 70%
17:00 +25°C° 0 mm 3 mps 753 mmHg 72%
18:00 +22°C° 0 mm 3 mps 753 mmHg 78%
19:00 +21°C° 0 mm 2 mps 753 mmHg 84%
20:00 +19°C° 0 mm 2 mps 753 mmHg 89%
21:00 +19°C° 0 mm 2 mps 753 mmHg 90%
22:00 +19°C° 0 mm 1 mps 753 mmHg 91%
23:00 +19°C° 0 mm 1 mps 753 mmHg 91%

Day after tomorrow, 8 August, Saturday

Time Temperature Precipitation Wind Pressure Humidity
00:00 +19°C° 0 mm 1 mps 753 mmHg 90%
01:00 +19°C° 0 mm 1 mps 753 mmHg 90%
02:00 +19°C° 0 mm 1 mps 753 mmHg 89%
03:00 +19°C° 0 mm 1 mps 752 mmHg 90%
04:00 +18°C° 0 mm 1 mps 752 mmHg 90%
05:00 +18°C° 0 mm 1 mps 752 mmHg 91%
06:00 +19°C° 0 mm 1 mps 752 mmHg 88%
07:00 +20°C° 0 mm 1 mps 752 mmHg 85%
08:00 +21°C° 0 mm 1 mps 752 mmHg 82%
09:00 +22°C° 0.4 mm 1 mps 752 mmHg 79%
10:00 +23°C° 0.4 mm 2 mps 752 mmHg 76%
11:00 +24°C° 0.4 mm 2 mps 752 mmHg 72%
12:00 +24°C° 0.3 mm 2 mps 751 mmHg 74%
13:00 +24°C° 0.3 mm 2 mps 751 mmHg 75%
14:00 +24°C° 0.3 mm 2 mps 750 mmHg 77%
15:00 +24°C° 0.1 mm 2 mps 750 mmHg 75%
16:00 +25°C° 0.1 mm 1 mps 750 mmHg 73%
17:00 +25°C° 0.1 mm 1 mps 750 mmHg 71%
18:00 +23°C° 0.1 mm 1 mps 750 mmHg 77%
19:00 +22°C° 0.1 mm 1 mps 749 mmHg 83%
20:00 +20°C° 0.1 mm 1 mps 749 mmHg 89%
21:00 +20°C° 0 mm 1 mps 749 mmHg 90%
22:00 +19°C° 0 mm 1 mps 749 mmHg 91%
23:00 +18°C° 0 mm 1 mps 749 mmHg 92%

9 August, Sunday

Time Temperature Precipitation Wind Pressure Humidity
00:00 +18°C° 0 mm 1 mps 749 mmHg 93%
01:00 +18°C° 0 mm 1 mps 749 mmHg 93%
02:00 +16°C° 0 mm 1 mps 749 mmHg 94%
03:00 +16°C° 0 mm 1 mps 749 mmHg 94%
04:00 +16°C° 0 mm 1 mps 749 mmHg 94%
05:00 +16°C° 0 mm 1 mps 749 mmHg 94%
06:00 +17°C° 0 mm 2 mps 749 mmHg 91%
07:00 +19°C° 0 mm 2 mps 749 mmHg 87%
08:00 +20°C° 0 mm 2 mps 749 mmHg 83%
09:00 +21°C° 0.4 mm 2 mps 749 mmHg 79%
10:00 +24°C° 0.4 mm 2 mps 749 mmHg 75%
11:00 +25°C° 0.4 mm 2 mps 749 mmHg 71%
12:00 +25°C° 0.4 mm 3 mps 748 mmHg 69%
13:00 +26°C° 0.4 mm 3 mps 748 mmHg 68%
14:00 +26°C° 0.4 mm 3 mps 748 mmHg 66%
15:00 +26°C° 0 mm 3 mps 748 mmHg 67%
16:00 +26°C° 0 mm 3 mps 748 mmHg 69%
17:00 +26°C° 0 mm 2 mps 747 mmHg 70%
18:00 +24°C° 0.1 mm 2 mps 747 mmHg 75%
19:00 +21°C° 0.1 mm 2 mps 747 mmHg 80%
20:00 +20°C° 0.1 mm 2 mps 747 mmHg 84%
21:00 +19°C° 0 mm 2 mps 748 mmHg 86%
22:00 +19°C° 0 mm 2 mps 748 mmHg 87%
23:00 +19°C° 0 mm 1 mps 748 mmHg 89%

10 August, Monday

Time Temperature Precipitation Wind Pressure Humidity
00:00 +18°C° 0 mm 2 mps 748 mmHg 89%
01:00 +17°C° 0 mm 2 mps 748 mmHg 90%
02:00 +17°C° 0 mm 2 mps 748 mmHg 90%
03:00 +17°C° 0 mm 2 mps 748 mmHg 91%
04:00 +18°C° 0 mm 1 mps 748 mmHg 91%
05:00 +18°C° 0 mm 1 mps 748 mmHg 91%
06:00 +19°C° 0 mm 1 mps 748 mmHg 87%
07:00 +21°C° 0 mm 1 mps 748 mmHg 83%
08:00 +21°C° 0 mm 2 mps 748 mmHg 78%
09:00 +24°C° 0.2 mm 2 mps 748 mmHg 75%
10:00 +25°C° 0.2 mm 2 mps 748 mmHg 71%
11:00 +26°C° 0.2 mm 2 mps 748 mmHg 67%
12:00 +26°C° 0.3 mm 2 mps 748 mmHg 65%
13:00 +27°C° 0.3 mm 2 mps 748 mmHg 62%
14:00 +27°C° 0.3 mm 2 mps 748 mmHg 60%
15:00 +27°C° 0.1 mm 2 mps 748 mmHg 63%
16:00 +27°C° 0.1 mm 2 mps 747 mmHg 66%
17:00 +27°C° 0.1 mm 2 mps 747 mmHg 69%
18:00 +25°C° 0.1 mm 2 mps 747 mmHg 73%
19:00 +23°C° 0.1 mm 1 mps 747 mmHg 78%
20:00 +21°C° 0.1 mm 1 mps 747 mmHg 82%
21:00 +21°C° 0 mm 1 mps 747 mmHg 84%
22:00 +20°C° 0 mm 1 mps 747 mmHg 85%
23:00 +20°C° 0 mm 1 mps 747 mmHg 86%

11 August, Tuesday

Time Temperature Precipitation Wind Pressure Humidity
00:00 +19°C° 0 mm 1 mps 747 mmHg 87%
01:00 +19°C° 0 mm 1 mps 747 mmHg 89%
02:00 +19°C° 0 mm 1 mps 747 mmHg 90%
03:00 +18°C° 0 mm 1 mps 747 mmHg 90%
04:00 +18°C° 0 mm 1 mps 747 mmHg 90%
05:00 +18°C° 0 mm 1 mps 747 mmHg 90%
06:00 +20°C° 0 mm 1 mps 747 mmHg 85%
07:00 +21°C° 0 mm 1 mps 747 mmHg 80%
08:00 +23°C° 0 mm 1 mps 747 mmHg 75%
09:00 +24°C° 0.3 mm 2 mps 747 mmHg 72%
10:00 +25°C° 0.3 mm 2 mps 747 mmHg 69%
11:00 +26°C° 0.3 mm 2 mps 747 mmHg 66%
12:00 +26°C° 0.6 mm 2 mps 747 mmHg 66%
13:00 +27°C° 0.6 mm 3 mps 747 mmHg 67%
14:00 +27°C° 0.6 mm 3 mps 747 mmHg 67%
15:00 +26°C° 0.6 mm 3 mps 746 mmHg 70%
16:00 +26°C° 0.6 mm 3 mps 746 mmHg 73%
17:00 +25°C° 0.6 mm 2 mps 746 mmHg 76%
18:00 +24°C° 0.3 mm 2 mps 746 mmHg 80%
19:00 +21°C° 0.3 mm 3 mps 747 mmHg 84%
20:00 +20°C° 0.3 mm 3 mps 747 mmHg 88%
21:00 +19°C° 0 mm 3 mps 747 mmHg 90%
22:00 +18°C° 0 mm 3 mps 747 mmHg 92%
23:00 +17°C° 0 mm 3 mps 747 mmHg 94%
Show more